• In Russia
  • List of Countries
  • For 7 days
  • Water Temperature
  • Satellite Maps
  • Weather Map
  • Weather Widgets
  • user-avatar
    Login

    Hourly Weather Mingachevir

    Today, 20 July, Thursday

    Time Temperature Precipitation Wind Pressure Humidity
    00:00 +28°C° 0 mm 2 mps 748 mmHg 32%
    01:00 +28°C° 0 mm 2 mps 748 mmHg 33%
    02:00 +27°C° 0 mm 1 mps 748 mmHg 34%
    03:00 +28°C° 0 mm 1 mps 748 mmHg 37%
    04:00 +28°C° 0 mm 1 mps 748 mmHg 37%
    05:00 +28°C° 0 mm 1 mps 748 mmHg 37%
    06:00 +29°C° 0 mm 1 mps 748 mmHg 37%
    07:00 +31°C° 0 mm 1 mps 748 mmHg 32%
    08:00 +32°C° 0 mm 1 mps 748 mmHg 27%
    09:00 +35°C° 0 mm 1 mps 748 mmHg 22%
    10:00 +37°C° 0 mm 2 mps 747 mmHg 20%
    11:00 +38°C° 0 mm 2 mps 747 mmHg 18%
    12:00 +39°C° 0 mm 3 mps 747 mmHg 16%
    13:00 +40°C° 0 mm 3 mps 746 mmHg 15%
    14:00 +40°C° 0 mm 3 mps 746 mmHg 15%
    15:00 +42°C° 0 mm 3 mps 746 mmHg 14%
    16:00 +40°C° 0 mm 3 mps 746 mmHg 16%
    17:00 +40°C° 0 mm 3 mps 746 mmHg 17%
    18:00 +40°C° 0 mm 3 mps 746 mmHg 18%
    19:00 +37°C° 0 mm 3 mps 746 mmHg 20%
    20:00 +35°C° 0 mm 3 mps 747 mmHg 22%
    21:00 +33°C° 0 mm 3 mps 747 mmHg 24%
    22:00 +31°C° 0 mm 2 mps 748 mmHg 25%
    23:00 +30°C° 0 mm 2 mps 748 mmHg 27%

    Tomorrow, 21 July, Friday

    Time Temperature Precipitation Wind Pressure Humidity
    00:00 +29°C° 0 mm 2 mps 748 mmHg 28%
    01:00 +29°C° 0 mm 2 mps 748 mmHg 29%
    02:00 +28°C° 0 mm 2 mps 748 mmHg 29%
    03:00 +28°C° 0 mm 2 mps 748 mmHg 30%
    04:00 +28°C° 0 mm 2 mps 748 mmHg 30%
    05:00 +29°C° 0 mm 2 mps 749 mmHg 30%
    06:00 +29°C° 0 mm 2 mps 749 mmHg 30%
    07:00 +31°C° 0 mm 2 mps 749 mmHg 26%
    08:00 +34°C° 0 mm 3 mps 749 mmHg 22%
    09:00 +36°C° 0 mm 3 mps 749 mmHg 18%
    10:00 +37°C° 0 mm 3 mps 749 mmHg 17%
    11:00 +39°C° 0 mm 2 mps 748 mmHg 15%
    12:00 +40°C° 0 mm 2 mps 748 mmHg 14%
    13:00 +42°C° 0 mm 3 mps 748 mmHg 13%
    14:00 +43°C° 0 mm 4 mps 748 mmHg 12%
    15:00 +44°C° 0 mm 4 mps 747 mmHg 11%
    16:00 +43°C° 0 mm 4 mps 748 mmHg 12%
    17:00 +42°C° 0 mm 5 mps 748 mmHg 14%
    18:00 +41°C° 0 mm 5 mps 748 mmHg 15%
    19:00 +38°C° 0 mm 4 mps 749 mmHg 17%
    20:00 +36°C° 0 mm 4 mps 749 mmHg 19%
    21:00 +33°C° 0 mm 4 mps 750 mmHg 21%
    22:00 +31°C° 0 mm 3 mps 750 mmHg 23%
    23:00 +30°C° 0 mm 3 mps 750 mmHg 25%

    Day after tomorrow, 22 July, Saturday

    Time Temperature Precipitation Wind Pressure Humidity
    00:00 +29°C° 0 mm 2 mps 750 mmHg 27%
    01:00 +29°C° 0 mm 2 mps 750 mmHg 28%
    02:00 +28°C° 0 mm 2 mps 750 mmHg 29%
    03:00 +28°C° 0 mm 2 mps 750 mmHg 30%
    04:00 +28°C° 0 mm 1 mps 750 mmHg 31%
    05:00 +29°C° 0 mm 1 mps 751 mmHg 32%
    06:00 +29°C° 0 mm 1 mps 751 mmHg 33%
    07:00 +31°C° 0 mm 1 mps 751 mmHg 29%
    08:00 +34°C° 0 mm 2 mps 751 mmHg 25%
    09:00 +36°C° 0 mm 2 mps 751 mmHg 21%
    10:00 +38°C° 0 mm 2 mps 750 mmHg 20%
    11:00 +39°C° 0 mm 3 mps 750 mmHg 18%
    12:00 +40°C° 0 mm 3 mps 750 mmHg 16%
    13:00 +42°C° 0 mm 4 mps 749 mmHg 15%
    14:00 +43°C° 0 mm 4 mps 749 mmHg 15%
    15:00 +43°C° 0 mm 4 mps 748 mmHg 14%
    16:00 +43°C° 0 mm 4 mps 748 mmHg 15%
    17:00 +42°C° 0 mm 4 mps 748 mmHg 16%
    18:00 +41°C° 0 mm 4 mps 748 mmHg 17%
    19:00 +38°C° 0 mm 4 mps 749 mmHg 20%
    20:00 +36°C° 0 mm 4 mps 749 mmHg 23%
    21:00 +33°C° 0 mm 4 mps 750 mmHg 26%
    22:00 +31°C° 0 mm 3 mps 750 mmHg 28%
    23:00 +30°C° 0 mm 3 mps 749 mmHg 30%

    23 July, Sunday

    Time Temperature Precipitation Wind Pressure Humidity
    00:00 +29°C° 0 mm 2 mps 749 mmHg 32%
    01:00 +29°C° 0 mm 2 mps 749 mmHg 33%
    02:00 +28°C° 0 mm 1 mps 749 mmHg 33%
    03:00 +28°C° 0 mm 1 mps 749 mmHg 33%
    04:00 +28°C° 0 mm 1 mps 749 mmHg 33%
    05:00 +29°C° 0 mm 1 mps 749 mmHg 32%
    06:00 +29°C° 0 mm 1 mps 749 mmHg 32%
    07:00 +31°C° 0 mm 1 mps 749 mmHg 28%
    08:00 +33°C° 0 mm 1 mps 749 mmHg 25%
    09:00 +36°C° 0 mm 2 mps 748 mmHg 21%
    10:00 +37°C° 0 mm 2 mps 748 mmHg 19%
    11:00 +38°C° 0 mm 2 mps 747 mmHg 18%
    12:00 +39°C° 0 mm 2 mps 747 mmHg 17%
    13:00 +40°C° 0 mm 3 mps 746 mmHg 16%
    14:00 +42°C° 0 mm 3 mps 746 mmHg 15%
    15:00 +43°C° 0 mm 3 mps 745 mmHg 15%
    16:00 +43°C° 0 mm 3 mps 745 mmHg 15%
    17:00 +42°C° 0 mm 4 mps 745 mmHg 16%
    18:00 +42°C° 0 mm 4 mps 745 mmHg 17%
    19:00 +38°C° 0 mm 4 mps 745 mmHg 20%
    20:00 +36°C° 0 mm 3 mps 746 mmHg 22%
    21:00 +34°C° 0 mm 3 mps 746 mmHg 24%
    22:00 +33°C° 0 mm 3 mps 747 mmHg 26%
    23:00 +31°C° 0 mm 2 mps 747 mmHg 28%

    24 July, Monday

    Time Temperature Precipitation Wind Pressure Humidity
    00:00 +29°C° 0 mm 2 mps 747 mmHg 31%
    01:00 +29°C° 0 mm 2 mps 747 mmHg 30%
    02:00 +29°C° 0 mm 2 mps 747 mmHg 30%
    03:00 +28°C° 0 mm 1 mps 747 mmHg 30%
    04:00 +29°C° 0 mm 2 mps 747 mmHg 30%
    05:00 +29°C° 0 mm 2 mps 747 mmHg 29%
    06:00 +29°C° 0 mm 2 mps 747 mmHg 29%
    07:00 +31°C° 0 mm 2 mps 747 mmHg 26%
    08:00 +34°C° 0 mm 2 mps 747 mmHg 23%
    09:00 +36°C° 0 mm 3 mps 747 mmHg 20%
    10:00 +37°C° 0 mm 2 mps 746 mmHg 19%
    11:00 +38°C° 0 mm 2 mps 746 mmHg 17%
    12:00 +40°C° 0 mm 2 mps 746 mmHg 16%
    13:00 +40°C° 0 mm 2 mps 745 mmHg 16%
    14:00 +42°C° 0 mm 3 mps 745 mmHg 15%
    15:00 +43°C° 0 mm 3 mps 745 mmHg 15%
    16:00 +42°C° 0 mm 3 mps 745 mmHg 16%
    17:00 +42°C° 0 mm 3 mps 745 mmHg 17%
    18:00 +41°C° 0 mm 4 mps 745 mmHg 18%
    19:00 +38°C° 0 mm 4 mps 746 mmHg 22%
    20:00 +36°C° 0 mm 4 mps 746 mmHg 26%
    21:00 +33°C° 0 mm 5 mps 747 mmHg 30%
    22:00 +33°C° 0 mm 4 mps 747 mmHg 32%
    23:00 +31°C° 0 mm 3 mps 747 mmHg 34%

    25 July, Tuesday

    Time Temperature Precipitation Wind Pressure Humidity
    00:00 +30°C° 0 mm 2 mps 747 mmHg 37%
    01:00 +29°C° 0 mm 2 mps 747 mmHg 38%
    02:00 +29°C° 0 mm 2 mps 747 mmHg 39%
    03:00 +28°C° 0 mm 2 mps 747 mmHg 40%
    04:00 +28°C° 0 mm 1 mps 747 mmHg 40%
    05:00 +29°C° 0 mm 1 mps 748 mmHg 39%
    06:00 +29°C° 0 mm 1 mps 748 mmHg 39%
    07:00 +31°C° 0 mm 2 mps 748 mmHg 36%
    08:00 +34°C° 0 mm 2 mps 747 mmHg 32%
    09:00 +36°C° 0 mm 3 mps 747 mmHg 29%
    10:00 +37°C° 0 mm 3 mps 747 mmHg 27%
    11:00 +40°C° 0 mm 4 mps 746 mmHg 24%
    12:00 +41°C° 0 mm 4 mps 746 mmHg 22%
    13:00 +42°C° 0 mm 5 mps 746 mmHg 21%
    14:00 +42°C° 0 mm 5 mps 746 mmHg 21%
    15:00 +44°C° 0 mm 6 mps 745 mmHg 20%
    16:00 +42°C° 0 mm 6 mps 745 mmHg 22%
    17:00 +41°C° 0 mm 7 mps 745 mmHg 23%
    18:00 +40°C° 0 mm 7 mps 745 mmHg 25%
    19:00 +38°C° 0 mm 7 mps 746 mmHg 30%
    20:00 +35°C° 0 mm 7 mps 747 mmHg 34%
    21:00 +33°C° 0 mm 7 mps 747 mmHg 38%
    22:00 +32°C° 0 mm 6 mps 747 mmHg 41%
    23:00 +30°C° 0 mm 4 mps 748 mmHg 44%
    Show more